Kansai International Airport


Codes: RJBB/KIX
Name: Kansai International Airport
City: Osaka
Country: Japan
Elevation: 26 ft.
Website:
Wikipedia:

Photos at Kansai International Airport


   Photos courtesy of SpottingLog. You can add your own sightings and photos by signing up for a free trial today.



9H-BBJ, 29-Jun-2019
© Tomo-Papa

HS-TYT, 29-Jun-2019
© Tomo-Papa

9V-STU, 29-Jun-2019
© Tomo-Papa

B-2479, 29-Jun-2019
© Tomo-Papa

HL8085, 29-Jun-2019
© Tomo-Papa

A7-CGC, 29-Jun-2019
© Tomo-Papa

VT-ESO, 29-Jun-2019
© Tomo-Papa

10001, 29-Jun-2019
© Tomo-Papa

A-001, 29-Jun-2019
© Tomo-Papa

B-LXC, 29-Jun-2019
© Tomo-Papa

B-2482, 29-Jun-2019
© Tomo-Papa

B-6016, 29-Jun-2019
© Tomo-Papa


Weather at Kansai International Airport


Time (UTC)DescriptionTempratureWindCloud coverageVisibilityPressureHumidity
13-Jun-2024 03:00Broken Clouds23°C9 mph, W76%10000m1005hPa84%
13-Jun-2024 06:00Broken Clouds24°C9 mph, W52%10000m1004hPa76%
13-Jun-2024 09:00Clear Sky24°C9 mph, W0%10000m1005hPa77%
13-Jun-2024 12:00Clear Sky21°C13 mph, SW1%10000m1006hPa89%
13-Jun-2024 15:00Clear Sky21°C7 mph, SW0%10000m1007hPa90%
13-Jun-2024 18:00Clear Sky21°C4 mph, SE5%10000m1007hPa89%
13-Jun-2024 21:00Clear Sky21°C2 mph, E0%10000m1009hPa89%
14-Jun-2024 00:00Clear Sky22°C2 mph, NW0%10000m1008hPa87%
14-Jun-2024 03:00Clear Sky23°C4 mph, W4%10000m1008hPa76%
14-Jun-2024 06:00Clear Sky24°C13 mph, SW3%10000m1007hPa79%
14-Jun-2024 09:00Scattered Clouds23°C16 mph, SW45%10000m1007hPa82%
14-Jun-2024 12:00Scattered Clouds22°C11 mph, SW46%10000m1008hPa89%
14-Jun-2024 15:00Broken Clouds21°C4 mph, SE67%10000m1008hPa90%
14-Jun-2024 18:00Broken Clouds21°C2 mph, S69%10000m1007hPa93%
14-Jun-2024 21:00Broken Clouds21°C4 mph, E60%10000m1007hPa90%
15-Jun-2024 00:00Broken Clouds21°C2 mph, NE80%10000m1006hPa79%
15-Jun-2024 03:00Overcast Clouds22°C2 mph, NE100%10000m1004hPa72%
15-Jun-2024 06:00Overcast Clouds22°C4 mph, SW100%10000m1002hPa75%
15-Jun-2024 09:00Light Rain22°C9 mph, S100%10000m1003hPa90%
15-Jun-2024 12:00Light Rain21°C9 mph, SW100%10000m1004hPa97%
15-Jun-2024 15:00Light Rain21°C4 mph, S99%10000m1004hPa97%
15-Jun-2024 18:00Overcast Clouds21°C0 mph, SE99%10000m1003hPa94%
15-Jun-2024 21:00Broken Clouds21°C2 mph, S79%10000m1005hPa93%
16-Jun-2024 00:00Overcast Clouds22°C2 mph, SW90%10000m1005hPa92%
16-Jun-2024 03:00Overcast Clouds23°C7 mph, SW100%10000m1005hPa85%
16-Jun-2024 06:00Broken Clouds23°C9 mph, SW70%10000m1005hPa82%
16-Jun-2024 09:00Clear Sky23°C16 mph, SW0%10000m1005hPa86%
16-Jun-2024 12:00Few Clouds22°C11 mph, S18%10000m1006hPa87%
16-Jun-2024 15:00Light Rain21°C7 mph, SW77%10000m1007hPa93%
16-Jun-2024 18:00Light Rain21°C7 mph, S88%10000m1007hPa95%
16-Jun-2024 21:00Overcast Clouds21°C2 mph, SW100%10000m1007hPa93%
17-Jun-2024 00:00Overcast Clouds22°C2 mph, SW100%10000m1008hPa80%
17-Jun-2024 03:00Overcast Clouds23°C2 mph, S100%10000m1008hPa73%
17-Jun-2024 06:00Overcast Clouds23°C4 mph, SW100%10000m1008hPa71%
17-Jun-2024 09:00Overcast Clouds23°C4 mph, SW100%10000m1008hPa71%
17-Jun-2024 12:00Overcast Clouds22°C9 mph, SW100%10000m1009hPa79%
17-Jun-2024 15:00Overcast Clouds22°C13 mph, S100%10000m1010hPa81%
17-Jun-2024 18:00Overcast Clouds21°C9 mph, S100%10000m1009hPa86%
17-Jun-2024 21:00Overcast Clouds21°C4 mph, S100%10000m1010hPa84%
18-Jun-2024 00:00Overcast Clouds22°C4 mph, SW100%10000m1010hPa84%